Hourly Weather Kozly

Today, 31 October, Saturday

Time Temperature Precipitation Wind Pressure Humidity
00:00 +6°C° 0 mm 2 mps 749 mmHg 91%
01:00 +5°C° 0 mm 2 mps 749 mmHg 93%
02:00 +5°C° 0 mm 2 mps 749 mmHg 94%
03:00 +4°C° 0 mm 2 mps 749 mmHg 95%
04:00 +4°C° 0 mm 2 mps 749 mmHg 96%
05:00 +4°C° 0 mm 2 mps 749 mmHg 96%
06:00 +4°C° 0 mm 2 mps 749 mmHg 96%
07:00 +4°C° 0 mm 2 mps 749 mmHg 96%
08:00 +4°C° 0 mm 2 mps 749 mmHg 95%
09:00 +6°C° 0 mm 2 mps 749 mmHg 89%
10:00 +7°C° 0 mm 3 mps 750 mmHg 83%
11:00 +9°C° 0 mm 3 mps 750 mmHg 77%
12:00 +9°C° 0 mm 3 mps 750 mmHg 76%
13:00 +8°C° 0 mm 4 mps 750 mmHg 76%
14:00 +8°C° 0 mm 4 mps 750 mmHg 75%
15:00 +8°C° 0.2 mm 4 mps 750 mmHg 80%
16:00 +7°C° 0.2 mm 4 mps 750 mmHg 85%
17:00 +8°C° 0.2 mm 3 mps 750 mmHg 89%
18:00 +7°C° 0.1 mm 4 mps 750 mmHg 90%
19:00 +7°C° 0.1 mm 4 mps 750 mmHg 91%
20:00 +7°C° 0.1 mm 4 mps 750 mmHg 92%
21:00 +8°C° 0.1 mm 4 mps 750 mmHg 92%
22:00 +8°C° 0.1 mm 4 mps 750 mmHg 92%
23:00 +8°C° 0.1 mm 4 mps 750 mmHg 91%

Tomorrow, 1 November, Sunday

Time Temperature Precipitation Wind Pressure Humidity
00:00 +8°C° 0.2 mm 5 mps 750 mmHg 91%
01:00 +7°C° 0.2 mm 5 mps 750 mmHg 90%
02:00 +7°C° 0.2 mm 5 mps 750 mmHg 89%
03:00 +7°C° 0 mm 5 mps 750 mmHg 88%
04:00 +7°C° 0 mm 5 mps 749 mmHg 87%
05:00 +7°C° 0 mm 5 mps 749 mmHg 86%
06:00 +7°C° 0 mm 5 mps 749 mmHg 86%
07:00 +6°C° 0 mm 5 mps 749 mmHg 85%
08:00 +6°C° 0 mm 5 mps 749 mmHg 85%
09:00 +7°C° 0 mm 5 mps 749 mmHg 84%
10:00 +7°C° 0 mm 5 mps 749 mmHg 84%
11:00 +7°C° 0 mm 5 mps 748 mmHg 83%
12:00 +7°C° 0.3 mm 5 mps 748 mmHg 84%
13:00 +7°C° 0.3 mm 5 mps 748 mmHg 84%
14:00 +7°C° 0.3 mm 5 mps 747 mmHg 85%
15:00 +7°C° 0.3 mm 5 mps 747 mmHg 85%
16:00 +7°C° 0.3 mm 4 mps 747 mmHg 86%
17:00 +7°C° 0.3 mm 4 mps 747 mmHg 87%
18:00 +6°C° 0.1 mm 4 mps 747 mmHg 87%
19:00 +6°C° 0.1 mm 4 mps 747 mmHg 88%
20:00 +7°C° 0.1 mm 3 mps 747 mmHg 89%
21:00 +7°C° 0 mm 3 mps 748 mmHg 90%
22:00 +7°C° 0 mm 2 mps 748 mmHg 91%
23:00 +7°C° 0 mm 2 mps 748 mmHg 92%

Day after tomorrow, 2 November, Monday

Time Temperature Precipitation Wind Pressure Humidity
00:00 +7°C° 0 mm 2 mps 748 mmHg 92%
01:00 +8°C° 0 mm 1 mps 748 mmHg 92%
02:00 +8°C° 0 mm 1 mps 748 mmHg 92%
03:00 +8°C° 0 mm 1 mps 748 mmHg 92%
04:00 +8°C° 0 mm 1 mps 748 mmHg 93%
05:00 +8°C° 0 mm 1 mps 748 mmHg 93%
06:00 +8°C° 0 mm 1 mps 749 mmHg 93%
07:00 +8°C° 0 mm 1 mps 749 mmHg 92%
08:00 +8°C° 0 mm 1 mps 749 mmHg 92%
09:00 +9°C° 0 mm 1 mps 749 mmHg 90%
10:00 +9°C° 0 mm 1 mps 749 mmHg 88%
11:00 +9°C° 0 mm 1 mps 749 mmHg 86%
12:00 +10°C° 0 mm 1 mps 749 mmHg 84%
13:00 +10°C° 0 mm 1 mps 749 mmHg 82%
14:00 +10°C° 0 mm 2 mps 750 mmHg 79%
15:00 +10°C° 0 mm 1 mps 749 mmHg 82%
16:00 +10°C° 0 mm 1 mps 749 mmHg 84%
17:00 +9°C° 0 mm 1 mps 749 mmHg 87%
18:00 +8°C° 0 mm 0 mps 750 mmHg 88%
19:00 +7°C° 0 mm 0 mps 750 mmHg 89%
20:00 +7°C° 0 mm 0 mps 750 mmHg 90%
21:00 +7°C° 0 mm 0 mps 750 mmHg 90%
22:00 +6°C° 0 mm 0 mps 750 mmHg 90%
23:00 +7°C° 0 mm 1 mps 750 mmHg 90%

3 November, Tuesday

Time Temperature Precipitation Wind Pressure Humidity
00:00 +7°C° 0 mm 1 mps 750 mmHg 91%
01:00 +7°C° 0 mm 1 mps 750 mmHg 91%
02:00 +6°C° 0 mm 1 mps 751 mmHg 92%
03:00 +6°C° 0 mm 1 mps 751 mmHg 92%
04:00 +6°C° 0 mm 1 mps 751 mmHg 92%
05:00 +6°C° 0 mm 1 mps 751 mmHg 92%
06:00 +6°C° 0 mm 1 mps 751 mmHg 91%
07:00 +6°C° 0 mm 1 mps 751 mmHg 90%
08:00 +7°C° 0 mm 1 mps 751 mmHg 90%
09:00 +8°C° 0 mm 1 mps 751 mmHg 85%
10:00 +8°C° 0 mm 2 mps 752 mmHg 79%
11:00 +10°C° 0 mm 2 mps 752 mmHg 74%
12:00 +10°C° 0 mm 2 mps 752 mmHg 73%
13:00 +12°C° 0 mm 2 mps 752 mmHg 72%
14:00 +13°C° 0 mm 2 mps 752 mmHg 72%
15:00 +11°C° 0 mm 1 mps 752 mmHg 77%
16:00 +10°C° 0 mm 1 mps 752 mmHg 83%
17:00 +9°C° 0 mm 1 mps 752 mmHg 88%
18:00 +9°C° 0 mm 1 mps 752 mmHg 89%
19:00 +9°C° 0 mm 1 mps 752 mmHg 90%
20:00 +8°C° 0 mm 1 mps 753 mmHg 91%
21:00 +8°C° 0 mm 1 mps 753 mmHg 91%
22:00 +9°C° 0 mm 1 mps 753 mmHg 91%
23:00 +9°C° 0 mm 1 mps 753 mmHg 91%

4 November, Wednesday

Time Temperature Precipitation Wind Pressure Humidity
00:00 +9°C° 0 mm 1 mps 753 mmHg 91%
01:00 +9°C° 0 mm 1 mps 753 mmHg 91%
02:00 +9°C° 0 mm 1 mps 753 mmHg 91%
03:00 +9°C° 0 mm 1 mps 753 mmHg 91%
04:00 +9°C° 0 mm 1 mps 753 mmHg 91%
05:00 +9°C° 0 mm 1 mps 753 mmHg 91%
06:00 +9°C° 0 mm 1 mps 753 mmHg 91%
07:00 +9°C° 0 mm 1 mps 754 mmHg 92%
08:00 +9°C° 0 mm 1 mps 754 mmHg 92%
09:00 +10°C° 0 mm 1 mps 754 mmHg 90%
10:00 +11°C° 0 mm 1 mps 754 mmHg 88%
11:00 +11°C° 0 mm 1 mps 755 mmHg 86%
12:00 +11°C° 0.1 mm 1 mps 755 mmHg 87%
13:00 +11°C° 0.1 mm 1 mps 755 mmHg 88%
14:00 +10°C° 0.1 mm 0 mps 755 mmHg 89%
15:00 +10°C° 0.2 mm 0 mps 755 mmHg 91%
16:00 +10°C° 0.2 mm 0 mps 756 mmHg 93%
17:00 +10°C° 0.2 mm 1 mps 756 mmHg 95%
18:00 +10°C° 0.2 mm 1 mps 756 mmHg 93%
19:00 +9°C° 0.2 mm 2 mps 756 mmHg 92%
20:00 +9°C° 0.2 mm 3 mps 757 mmHg 91%
21:00 +8°C° 0.3 mm 3 mps 757 mmHg 91%
22:00 +8°C° 0.3 mm 3 mps 757 mmHg 91%
23:00 +8°C° 0.3 mm 3 mps 757 mmHg 90%

5 November, Thursday

Time Temperature Precipitation Wind Pressure Humidity
00:00 +8°C° 0.3 mm 3 mps 758 mmHg 91%
01:00 +7°C° 0.3 mm 2 mps 758 mmHg 91%
02:00 +7°C° 0.3 mm 2 mps 758 mmHg 92%
03:00 +7°C° 0.1 mm 2 mps 758 mmHg 92%
04:00 +7°C° 0.1 mm 2 mps 758 mmHg 93%
05:00 +7°C° 0.1 mm 2 mps 758 mmHg 94%
06:00 +6°C° 0 mm 2 mps 759 mmHg 94%
07:00 +6°C° 0 mm 2 mps 759 mmHg 94%
08:00 +6°C° 0 mm 2 mps 759 mmHg 94%
09:00 +7°C° 0 mm 2 mps 759 mmHg 90%
10:00 +7°C° 0 mm 2 mps 759 mmHg 86%
11:00 +9°C° 0 mm 1 mps 760 mmHg 82%
12:00 +9°C° 0 mm 2 mps 760 mmHg 80%
13:00 +9°C° 0 mm 2 mps 759 mmHg 78%
14:00 +9°C° 0 mm 2 mps 759 mmHg 76%
15:00 +9°C° 0 mm 2 mps 759 mmHg 79%
16:00 +8°C° 0 mm 2 mps 759 mmHg 83%
17:00 +8°C° 0 mm 1 mps 759 mmHg 86%
18:00 +8°C° 0 mm 1 mps 759 mmHg 87%
19:00 +8°C° 0 mm 1 mps 759 mmHg 88%
20:00 +6°C° 0 mm 2 mps 759 mmHg 88%
21:00 +6°C° 0 mm 2 mps 759 mmHg 90%
22:00 +5°C° 0 mm 2 mps 759 mmHg 91%
23:00 +5°C° 0 mm 2 mps 759 mmHg 93%
Show more